Retour au catalogue

STARLINK-36534

ActifCommunicationsVLEO
NORAD 67496·PAYLOAD·🇺🇸 United States

Lancé Jan 18, 2026 depuis Cape Canaveral Space Force Station

Loading…

Prochains Passages (prochaines 24 heures)

TLE

FraisSource: CelesTrak SupGP

Époque: Sep 15, 2026, 02:53 UTC

1 67496C 26012D   26258.12062500  .00041248  00000+0  14946-2 0  2584
2 67496  43.0004 324.7908 0001466 255.3397 358.9696 15.27544447    19

Suivez STARLINK-36534 en temps réel avec AllMySat

Download on the App Store